User: anonymous   Login
Location: Unspecified
(0.0000°N, 0.0000°E)
Time: 22:38:52
(UTC+00:00)
Language:

RS-6 - Orbit

View from above orbital plane
View from above orbital plane
View from above satellite
View from above satellite

Ground track
Ground track

The orbit data is extracted from the following two-line orbital elements,

1 13000U 81120D   22229.17691863 -.00000123  00000-0 -15118-2 0  9990
2 13000  82.9587 103.6832 0018062 171.0552 311.0049 12.06886096791557
Epoch (UTC): 17 August 2022 04:14:45
Eccentricity: 0.0018062
inclination: 82.9587°
perigee height: 1635 km
apogee height: 1664 km
right ascension of ascending node: 103.6832°
argument of perigee: 171.0552°
revolutions per day: 12.06886096
mean anomaly at epoch: 311.0049°
orbit number at epoch: 79155

The dashed part of the orbit path shows where the satellite is in the earth's shadow,  

DLR